This demonstration page uses our WeatherBlox Daily Observations layout. Learn more.

Left ArrowRight Arrow

40.92945, -100.16068

Hourly Observations for December 1, 2018

Temp ( °F °C ) Dew Point ( °F °C ) Humidity (%) Winds ( mph kmh ) Pressure ( in mb ) Visibility ( mi km ) Precip ( " mm )
12:15 am 00:15 Cloudy with Light Rain 37 3 36 2.1 94 94 N 10 17 29.56 1001 7 11 0.01 0.25
12:35 am 00:35 Cloudy with Light Rain 37 2.8 36 2 95 95 NNE 12 19 29.53 1000 10 16 0.01 0.25
12:55 am 00:55 Cloudy with Light Rain 37 3 36 2 93 93 NE 12 19 29.53 1000 10 16 0.01 0.25
1:15 am 01:15 Cloudy with Light Rain 37 3 36 2 93 93 NNE 14 22 29.53 1000 10 16 N/A
1:35 am 01:35 Cloudy with Light Rain 37 2.9 35 1.9 93 93 NNE 13 20 29.53 1000 7 11 0.01 0.25
1:55 am 01:55 Cloudy with Light Rain 37 3 36 2 93 93 NNE 9 15 29.50 999 5 8 0.03 0.76
2:15 am 02:15 Cloudy with Light Rain 37 3 36 2 93 93 NNE 13 20 29.50 999 5 8 0.02 0.51
2:35 am 02:35 Cloudy with Rain 37 3 36 2 93 93 N 12 19 29.50 999 5 8 0.05 1.27
2:55 am 02:55 Cloudy with Light Rain 37 2.8 36 2 95 95 N 13 20 29.47 998 7 11 0.07 1.78
3:15 am 03:15 Cloudy with Light Rain 37 3 36 2.1 94 94 N 12 19 29.47 998 7 11 0.01 0.25
3:35 am 03:35 Cloudy with Light Rain 37 3 36 2.1 94 94 NNE 13 20 29.47 998 4 6 0.05 1.27
3:55 am 03:55 Cloudy with Light Rain 37 3 36 2 93 93 NNE 13 20 29.47 998 4 6 0.10 2.54
4:15 am 04:15 Cloudy with Light Rain 37 3 36 2 93 93 NNE 14 22 29.44 997 7 11 0.02 0.51
4:35 am 04:35 Cloudy with Light Rain 36 2 34 0.9 93 93 NNE 15 24 29.44 997 7 11 0.05 1.27
4:55 am 04:55 Cloudy with Light Snow 34 1 32 0.2 94 94 N 9 15 29.44 997 2 3 0.06 1.52
5:15 am 05:15 Cloudy with Light Snow 34 1 33 0.3 95 95 N 12 19 29.44 997 3 5 0.01 0.25
5:35 am 05:35 Cloudy with Light Snow 34 1 33 0.3 95 95 N 13 20 29.41 996 3 5 0.02 0.51
5:55 am 05:55 Cloudy with Light Snow 34 1 33 0.3 95 95 N 14 22 29.41 996 3 4 0.04 1.02
6:15 am 06:15 Cloudy with Light Snow 34 1 33 0.3 95 95 N 13 20 29.41 996 3 5 0.01 0.25
6:35 am 06:35 Cloudy with Light Snow 34 1 33 0.3 95 95 N 13 20 29.41 996 3 4 0.02 0.51
6:55 am 06:55 Cloudy with Light Snow 34 1 33 0.3 95 95 N 12 19 29.41 996 2 3 0.02 0.51
7:15 am 07:15 Cloudy with Light Snow 34 1 33 0.3 95 95 N 15 24 29.41 996 2 2 0.01 0.25
7:35 am 07:35 Cloudy with Light Snow 34 1 33 0.3 95 95 N 14 22 29.41 996 1 1 0.03 0.76
7:55 am 07:55 Cloudy with Light Snow 34 1 33 0.3 95 95 N 15 24 29.41 996 2 3 0.06 1.52
8:15 am 08:15 Cloudy with Light Snow 34 1.1 33 0.3 94 94 N 16 26 29.38 995 1 1 0.02 0.51
8:35 am 08:35 Cloudy with Light Snow 34 1.1 33 0.3 94 94 N 16 26 29.38 995 1 1 0.04 1.02
8:55 am 08:55 Cloudy with Snow 34 1.1 33 0.3 94 94 N 17 28 29.38 995 1 1 0.05 1.27
9:15 am 09:15 Cloudy with Light Snow 34 1.2 33 0.5 95 95 N 18 30 29.38 995 1 2 0.02 0.51
9:35 am 09:35 Windy with Snow Likely 35 1.5 33 0.6 94 94 N 22 35 29.38 995 3 5 0.04 1.02
9:55 am 09:55 Windy with Snow Likely 35 1.5 33 0.5 93 93 N 20 31 29.38 995 2 2 0.04 1.02
10:15 am 10:15 Windy with Snow Likely 35 1.5 33 0.4 92 92 N 22 35 29.41 996 2 3 0.01 0.25
10:35 am 10:35 Windy with Snow Likely 34 1.3 32 0.2 92 92 N 22 35 29.41 996 2 2 0.01 0.25
10:55 am 10:55 Windy with Snow Likely 34 1.3 32 0.2 92 92 N 21 33 29.41 996 2 2 0.01 0.25
11:15 am 11:15 Windy with Snow Likely 34 1.3 32 0.2 92 92 N 22 35 29.41 996 2 3 N/A
11:35 am 11:35 Windy with Snow Likely 34 1.2 32 0.1 92 92 N 23 37 29.41 996 2 2 N/A
11:55 am 11:55 Windy with Snow Likely 34 1.2 32 0.1 92 92 N 22 35 29.41 996 2 2 N/A
12:15 pm 12:15 Windy with Snow Likely 34 1.2 32 undefined 92 92 N 24 39 29.41 996 2 2 N/A
12:35 pm 12:35 Windy with Snow Likely 34 1.2 32 undefined 92 92 N 22 35 29.41 996 2 3 N/A
12:55 pm 12:55 Windy with Snow Likely 34 1.1 32 undefined 92 92 N 22 35 29.41 996 2 3 N/A
1:15 pm 13:15 Windy with Snow Likely 34 1.1 32 -0.1 92 92 N 24 39 29.41 996 3 5 N/A
1:35 pm 13:35 Windy with Snow Likely 34 1 32 -0.2 92 92 N 25 41 29.41 996 2 3 N/A
1:55 pm 13:55 Windy with Snow Likely 34 1 31 -0.3 91 91 N 21 33 29.41 996 2 2 N/A
2:15 pm 14:15 Cloudy with Light Snow 34 1 32 -0.2 92 92 N 18 30 29.41 996 2 2 N/A
2:35 pm 14:35 Windy with Snow Likely 34 1 32 undefined 93 93 N 21 33 29.41 996 1 1 N/A
2:55 pm 14:55 Windy with Snow Likely 33 0.7 32 -0.1 94 94 N 25 41 29.47 998 1 1 N/A
3:15 pm 15:15 Windy with Snow Likely 33 0.6 32 -0.2 94 94 N 23 37 29.47 998 1 1 0.01 0.25
3:35 pm 15:35 Windy with Snow Likely 33 0.3 30 -0.9 92 92 N 29 46 29.47 998 2 2 0.01 0.25
3:55 pm 15:55 Windy with Snow Likely 32 0.2 30 -1 92 92 N 23 37 29.50 999 2 3 0.01 0.25
4:15 pm 16:15 Windy with Snow Likely 32 0.1 30 -1.2 91 91 N 24 39 29.50 999 2 3 N/A
4:35 pm 16:35 Cloudy with Mist and Fog 32 undefined 29 -1.5 90 90 N 24 39 29.53 1000 5 8 N/A
4:55 pm 16:55 Cloudy 32 0.2 29 -1.5 89 89 N 25 41 29.53 1000 10 16 N/A
5:15 pm 17:15 Cloudy 33 0.3 29 -1.7 87 87 N 25 41 29.53 1000 10 16 N/A
5:35 pm 17:35 Cloudy 33 0.3 29 -1.7 87 87 N 25 41 29.56 1001 10 16 N/A
5:55 pm 17:55 Cloudy 33 0.3 29 -1.5 88 88 N 25 41 29.56 1001 10 16 N/A
6:15 pm 18:15 Cloudy 33 0.3 30 -1.2 90 90 N 25 41 29.56 1001 7 11 N/A
6:35 pm 18:35 Cloudy 33 0.3 30 -1.2 90 90 N 24 39 29.56 1001 10 16 N/A
6:55 pm 18:55 Cloudy 33 0.5 30 -1 90 90 N 24 39 29.59 1002 7 11 N/A
7:15 pm 19:15 Cloudy 33 0.5 30 -1 90 90 N 22 35 29.59 1002 7 11 N/A
7:35 pm 19:35 Cloudy with Mist and Fog 33 0.5 30 -0.9 90 90 N 23 37 29.59 1002 5 8 N/A
7:55 pm 19:55 Windy with Snow Likely 33 0.5 30 -1 90 90 N 22 35 29.59 1002 3 5 N/A
8:15 pm 20:15 Windy with Snow Likely 33 0.3 30 -1 91 91 N 21 33 29.59 1002 3 4 N/A
8:35 pm 20:35 Windy with Snow Likely 32 0.2 30 -1 92 92 N 24 39 29.62 1003 2 3 N/A
8:55 pm 20:55 Windy with Snow Likely 32 0.1 30 -0.9 93 93 N 22 35 29.62 1003 2 3 N/A
9:15 pm 21:15 Windy with Snow Likely 32 0.1 30 -1 92 92 NNW 21 33 29.62 1003 2 3 N/A
9:35 pm 21:35 Windy with Snow Likely 32 undefined 30 -1 93 93 NNW 22 35 29.65 1004 2 3 N/A
9:55 pm 21:55 Windy with Snow Likely 32 undefined 30 -1.2 92 92 NNW 20 31 29.65 1004 2 3 N/A
10:15 pm 22:15 Windy with Snow Likely 32 undefined 30 -1.3 91 91 NNW 22 35 29.65 1004 2 3 N/A
10:35 pm 22:35 Windy with Snow Likely 32 undefined 30 -1.2 92 92 NNW 20 31 29.65 1004 3 4 N/A
10:55 pm 22:55 Windy with Snow Likely 32 undefined 29 -1.4 90 90 NNW 21 33 29.65 1004 2 3 N/A
11:15 pm 23:15 Windy with Snow Likely 32 undefined 29 -1.6 89 89 NNW 20 31 29.68 1005 3 5 N/A
11:35 pm 23:35 Cloudy 32 undefined 29 -1.9 87 87 NNW 23 37 29.68 1005 10 16 N/A
11:55 pm 23:55 Cloudy 32 undefined 28 -2 87 87 NNW 25 41 29.68 1005 7 11 N/A

Powered by AerisWeather